Location: Newark
(46.9000°N, 28.3500°E)
Time: 22:32:22
(UTC+00:00)

Vanguard 1 - All Passes

Search period start: 21 August 2019 00:00
Search period end: 31 August 2019 00:00
Orbit: 655 x 3829 km, 34.2° (Epoch: 20 August)

Date Brightness Start Highest point End Pass type
(mag) Time Alt. Az. Time Alt. Az. Time Alt. Az.
21 Aug - 08:51:46 10° S 08:53:00 11° SSE 08:54:13 10° SSE daylight
21 Aug - 11:09:00 10° SW 11:12:09 19° S 11:15:38 10° SE daylight
21 Aug - 13:28:29 10° SW 13:31:33 15° S 13:35:18 10° SSE daylight
22 Aug - 09:11:16 10° SSW 09:13:44 14° SSE 09:16:04 10° SE daylight
22 Aug - 11:29:47 10° SW 11:32:53 18° S 11:36:22 10° SE daylight
22 Aug - 13:50:19 10° SW 13:52:23 12° SSW 13:54:43 10° S daylight
23 Aug - 09:31:30 10° SSW 09:34:28 16° S 09:37:16 10° SE daylight
23 Aug - 11:50:46 10° SW 11:53:38 17° S 11:56:53 10° SSE daylight
24 Aug - 07:34:11 10° S 07:35:51 11° SSE 07:37:22 10° SSE daylight
24 Aug - 09:52:02 10° SW 09:55:12 18° S 09:58:14 10° SE daylight
24 Aug - 12:11:59 10° SW 12:14:24 14° S 12:17:04 10° SSE daylight
25 Aug - 07:53:31 10° SSW 07:56:39 14° S 07:59:19 10° SE daylight
25 Aug - 10:12:46 10° SW 10:15:56 18° S 10:19:00 10° SE daylight
25 Aug - 12:33:54 10° SSW 12:35:09 11° SSW 12:36:28 10° S daylight
26 Aug - 08:13:40 10° SSW 08:17:26 17° S 08:20:35 10° SE daylight
26 Aug - 10:33:41 10° SW 10:36:39 17° S 10:39:35 10° SSE daylight
27 Aug - 06:15:22 10° S 06:18:31 13° SSE 06:21:10 10° SE daylight
27 Aug - 08:34:09 10° SW 08:38:13 19° S 08:41:34 10° SE daylight
27 Aug - 10:54:50 10° SW 10:57:22 15° SSW 10:59:54 10° SSE daylight
28 Aug - 06:34:44 10° SSW 06:39:24 17° SSE 06:43:00 10° SE daylight
28 Aug - 08:54:51 10° SW 08:58:59 20° S 09:02:23 10° SE daylight
28 Aug - 11:16:24 10° SW 11:18:04 12° SSW 11:19:44 10° S daylight
29 Aug - 04:38:36 10° SSE 04:39:54 10° SSE 04:41:08 10° SSE daylight
29 Aug - 06:54:49 10° SW 07:00:15 20° S 07:04:17 10° SE daylight
29 Aug - 09:15:45 10° SW 09:19:43 20° S 09:23:03 10° SE daylight
30 Aug - 04:55:46 10° S 05:00:52 15° SSE 05:04:51 10° SE daylight
30 Aug - 07:15:16 10° SW 07:21:06 23° S 07:25:18 10° SE daylight
30 Aug - 09:36:47 10° WSW 09:40:25 18° SSW 09:43:33 10° SSE daylight
